Location: Hylvaty SDH
(49.9612°N, 16.4057°E)
Time: 11:42:54
(UTC+01:00)

A-11 Canister half - Pass Details

Date: 09 October 2020
Orbit: 1526 x 1683 km, 47.3° (Epoch: 28 October)

Event Time Altitude Azimuth Distance (km) Brightness Sun altitude
Rises 21:03:08 0° 234° (SW) 4,680 11.9 -27.3°
Reaches altitude 10° 21:06:14 10° 231° (SW) 3,692 11.3 -27.8°
Maximum altitude 21:15:14 58° 155° (SSE) 1,745 8.9 -29.1°
Enters shadow 21:16:06 56° 135° (SE) 1,775 8.9 -29.2°
Drops below altitude 10° 21:24:19 10° 80° (E) 3,725 - -30.4°
Sets 21:27:27 0° 77° (ENE) 4,725 - -30.8°
